Regional Weather Roundup
Issued by NWS

Home | Current Version | Previous Version | Text Only | Print | Product List | Glossary On
Versions: 1 2 3 4 5 6 7 8 9 10 11 12 13 14 15 16 17 18 19 20 21 22 23 24 25 26 27 28 29 30 31 32 33 34 35 36 37 38 39 40 41 42 43 44 45 46 47 48 49 50
000
ASMX46 KSGX 220410
RWRMX

MEXICAN WEATHER ROUNDUP
NATIONAL WEATHER SERVICE SAN DIEGO CA
900 PM PDT THU AUG 21 2014

BAJA CALIFORNIA

CITY           SKY/WX    TMP DP  RH WIND       PRES   REMARKS
ENSENADA NW      N/A     71  32  24 CALM      29.91S
LA PAZ         PTCLDY    84  72  65 S6        29.93
MEXICALI       MOCLDY    73  66  78 S6        29.91
S.J. DEL CABO  PTCLDY    82  73  74 CALM      29.93R
TIJUANA        PTCLDY    68  61  77 W6        29.96S

NORTHWESTERN MEXICO

CITY           SKY/WX    TMP DP  RH WIND       PRES   REMARKS
CHIHUAHUA      TSTM      68  61  77 S29G41    30.15
CULIACAN       CLOUDY    82  73  74 CALM      29.91
HERMOSILLO     PTCLDY    91  64  40 S6        29.91
LOS MOCHIS       N/A    N/A N/A N/A MISG        N/A
OBREGON          N/A    N/A N/A N/A MISG        N/A

NORTHEASTERN MEXICO

CITY           SKY/WX    TMP DP  RH WIND       PRES   REMARKS
MONTERREY      PTCLDY    84  59  42 E23       30.01R
REYNOSA        CLEAR     81  72  74 SE14      30.03
TORREON        MOCLDY    82  57  42 SW5       30.05R
VICTORIA       CLEAR     77  68  73 S5        30.08

WESTERN MEXICO

CITY           SKY/WX    TMP DP  RH WIND       PRES   REMARKS
AGUASCALIENTES CLEAR     59  50  72 NE9       30.30
DURANGO        CLOUDY    61  57  88 SW6       30.32R
GUADALAJARA    MOCLDY    63  57  82 CALM      30.19
MAZATLAN       PTCLDY    79  73  83 NW8       29.89R
PTO. VALLARTA  CLOUDY    79  72  78 S14       29.95R
ZACATECAS      CLEAR     63  46  55 SE8       30.35R

CENTRAL MEXICO

CITY           SKY/WX    TMP DP  RH WIND       PRES   REMARKS
LEON           MOCLDY    68  54  60 NE12      30.31R
MEXICO CITY    MOCLDY    64  50  59 N7        30.37R
MORELIA        CLOUDY    59  57  94 CALM      30.28
PUEBLA         MOCLDY    57  41  54 NW6       30.41S
QUERETARO      PTCLDY    63  55  77 CALM      30.34S
S. LUIS POTOSI PTCLDY    63  52  67 E7        30.34R
TAMPICO        MOCLDY    79  75  89 CALM      30.06R
TOLUCA         MOCLDY    54  48  82 S7        30.45R
VERACRUZ       PTCLDY    82  73  74 NE3       30.05R

SOUTHERN MEXICO

CITY           SKY/WX    TMP DP  RH WIND       PRES   REMARKS
ACAPULCO       CLOUDY    79  75  89 N10       29.95R
OAXACA         MOCLDY    64  57  77 SE6       30.30R
TAPACHULA      MOCLDY    75  73  94 CALM      29.97R

YUCATAN PENINSULA

CITY           SKY/WX    TMP DP  RH WIND       PRES   REMARKS
CANCUN         TSTM      82  77  83 E5        30.07R
COZUMEL        PTCLDY    79  77  94 E5        30.05R
MERIDA         MOCLDY    81  75  83 NE7       30.05R

$$



USA.gov is the U.S. government's official web portal to all federal, state and local government web resources and services.